USA 81

Last updated on Thu Nov 21 2024 00:02:12 GMT+0000 (Coordinated Universal Time)

1 21949U 92023A 24325.21503684 .00000366 00000+0 12891-3 0 9994 2 21949 85.0102 45.1408 0002686 97.1568 262.9929 14.32087415 26870
UTC large
Height (km)
Speed (km/s)
/
Latitude / Longitude
Inclination (degrees)
Orbital Period (minutes)
Azimuth
Elevation
Range (km)
Doppler Factor

Next 0 passes for location: London (51.5072 / 0.1276)

Sorry there are no passes over London.